TimeCET,TemperatureF,Dew PointF,Humidity,Sea Level PressureIn,VisibilityMPH,Wind Direction,Wind SpeedMPH,Gust SpeedMPH,PrecipitationIn,Events,Conditions,WindDirDegrees,DateUTC
12:00 AM,37.4,35.6,93,30.09,3.1,Variable,3.5,-,N/A,,Mist,0,2013-01-09 23:00:00
12:30 AM,37.4,35.6,93,30.09,-9999.0,SW,3.5,-,N/A,,Mist,220,2013-01-09 23:30:00
1:00 AM,40,39,96,30.10,3,SW,6.9,,,,Mist,220,2013-01-10 00:00:00
1:00 AM,41.0,39.2,93,30.06,-9999.0,SW,6.9,-,N/A,,Mist,220,2013-01-10 00:00:00
1:30 AM,42.8,41.0,93,30.06,5.6,West,11.5,-,N/A,,Unknown,260,2013-01-10 00:30:00
2:00 AM,46.4,39.2,76,30.04,6.2,West,13.8,-,N/A,,Unknown,270,2013-01-10 01:00:00
2:30 AM,48.2,39.2,71,30.04,6.2,West,12.7,-,N/A,,Unknown,260,2013-01-10 01:30:00
3:00 AM,50.0,37.4,62,30.06,6.2,Variable,4.6,-,N/A,,Mostly Cloudy,0,2013-01-10 02:00:00
3:30 AM,50.0,39.2,66,30.04,6.2,WNW,16.1,27.6,N/A,,Mostly Cloudy,290,2013-01-10 02:30:00
4:00 AM,50.0,37.4,62,30.04,6.2,WNW,24.2,36.8,N/A,,Unknown,300,2013-01-10 03:00:00
4:30 AM,50.0,37.4,62,30.06,6.2,WNW,16.1,27.6,N/A,,Unknown,300,2013-01-10 03:30:00
5:00 AM,50.0,37.4,62,30.06,6.2,Variable,4.6,-,N/A,,Mostly Cloudy,0,2013-01-10 04:00:00
5:30 AM,50.0,39.2,66,30.04,6.2,NW,12.7,31.1,N/A,,Mostly Cloudy,310,2013-01-10 04:30:00
6:00 AM,50.0,39.2,66,30.04,6.2,NW,15.0,28.8,N/A,,Unknown,320,2013-01-10 05:00:00
6:30 AM,51.8,39.2,62,30.06,6.2,NW,11.5,-,N/A,,Unknown,320,2013-01-10 05:30:00
7:00 AM,51,39,54,30.08,12,WNW,16.1,,,,Partly Cloudy,300,2013-01-10 06:00:00
7:00 AM,50.0,39.2,66,30.06,6.2,WNW,15.0,27.6,N/A,,Scattered Clouds,300,2013-01-10 06:00:00
7:30 AM,50.0,39.2,66,30.06,6.2,NW,27.6,39.1,N/A,,Scattered Clouds,310,2013-01-10 06:30:00
8:00 AM,50.0,39.2,66,30.04,6.2,NW,31.1,47.2,N/A,,Scattered Clouds,310,2013-01-10 07:00:00
8:30 AM,51.8,39.2,62,30.06,6.2,NW,35.7,49.5,N/A,,Scattered Clouds,310,2013-01-10 07:30:00
9:00 AM,50.0,39.2,66,30.06,6.2,NW,27.6,39.1,N/A,,Scattered Clouds,310,2013-01-10 08:00:00
9:30 AM,50.0,39.2,66,30.06,6.2,NW,23.0,-,N/A,,Partly Cloudy,310,2013-01-10 08:30:00
10:00 AM,51.8,39.2,62,30.09,6.2,NW,23.0,35.7,N/A,,Partly Cloudy,310,2013-01-10 09:00:00
10:30 AM,51.8,39.2,62,30.12,6.2,NW,11.5,-,N/A,,Partly Cloudy,310,2013-01-10 09:30:00
11:00 AM,53.6,41.0,62,30.12,6.2,SE,5.8,-,N/A,,Scattered Clouds,140,2013-01-10 10:00:00
11:30 AM,53.6,41.0,62,30.12,6.2,Variable,8.1,-,N/A,,Scattered Clouds,0,2013-01-10 10:30:00
12:00 PM,55.4,42.8,63,30.12,6.2,West,12.7,32.2,N/A,,Scattered Clouds,270,2013-01-10 11:00:00
12:21 PM,57.2,42.8,59,30.09,6.2,NW,4.6,-,N/A,,Mostly Cloudy,320,2013-01-10 11:21:00
1:00 PM,58,42,45,30.09,25,NW,19.6,,,,Scattered Clouds,310,2013-01-10 12:00:00
1:00 PM,59.0,42.8,55,30.06,6.2,NW,19.6,-,N/A,,Partly Cloudy,310,2013-01-10 12:00:00
1:30 PM,57.2,42.8,59,30.06,6.2,WNW,26.5,40.3,N/A,,Mostly Cloudy,300,2013-01-10 12:30:00
1:51 PM,57.2,44.6,63,30.04,6.2,WNW,24.2,-,N/A,,Mostly Cloudy,300,2013-01-10 12:51:00
2:30 PM,57.2,44.6,63,30.01,6.2,WNW,32.2,-,N/A,,Mostly Cloudy,300,2013-01-10 13:30:00
3:00 PM,57.2,44.6,63,30.04,6.2,WNW,28.8,41.4,N/A,,Mostly Cloudy,300,2013-01-10 14:00:00
3:30 PM,59.0,44.6,59,30.04,6.2,WNW,28.8,-,N/A,,Mostly Cloudy,300,2013-01-10 14:30:00
4:00 PM,59.0,44.6,59,30.04,6.2,NW,25.3,-,N/A,,Mostly Cloudy,310,2013-01-10 15:00:00
4:30 PM,59.0,44.6,59,30.04,6.2,NW,26.5,38.0,N/A,,Mostly Cloudy,310,2013-01-10 15:30:00
5:00 PM,59.0,44.6,59,30.06,6.2,NW,23.0,-,N/A,,Mostly Cloudy,310,2013-01-10 16:00:00
5:30 PM,59.0,44.6,59,30.06,6.2,WNW,20.7,-,N/A,,Scattered Clouds,300,2013-01-10 16:30:00
6:00 PM,57.2,44.6,63,30.06,6.2,WNW,23.0,34.5,N/A,,Scattered Clouds,300,2013-01-10 17:00:00
6:30 PM,57.2,42.8,59,30.04,6.2,WNW,24.2,-,N/A,,Partly Cloudy,300,2013-01-10 17:30:00
7:00 PM,57,43,48,30.05,16,NW,28.8,,,,Scattered Clouds,310,2013-01-10 18:00:00
7:00 PM,57.2,42.8,59,30.04,6.2,NW,28.8,-,N/A,,Partly Cloudy,310,2013-01-10 18:00:00
7:30 PM,57.2,41.0,55,30.04,6.2,NW,28.8,-,N/A,,Unknown,310,2013-01-10 18:30:00
8:00 PM,57.2,41.0,55,30.04,6.2,NW,23.0,-,N/A,,Unknown,310,2013-01-10 19:00:00
8:30 PM,57.2,41.0,55,30.06,6.2,NW,27.6,-,N/A,,Unknown,310,2013-01-10 19:30:00
9:00 PM,57.2,41.0,55,30.06,6.2,NW,19.6,-,N/A,,Unknown,310,2013-01-10 20:00:00
9:30 PM,57.2,41.0,55,30.06,6.2,NW,17.3,29.9,N/A,,Unknown,320,2013-01-10 20:30:00
10:00 PM,55.4,42.8,63,30.09,6.2,WNW,16.1,-,N/A,,Mostly Cloudy,300,2013-01-10 21:00:00
10:30 PM,55.4,44.6,67,30.09,6.2,WNW,18.4,32.2,N/A,,Mostly Cloudy,300,2013-01-10 21:30:00
11:00 PM,55.4,41.0,58,30.09,6.2,NW,19.6,-,N/A,,Mostly Cloudy,310,2013-01-10 22:00:00
11:30 PM,53.6,41.0,62,30.12,6.2,WNW,23.0,36.8,N/A,,Mostly Cloudy,300,2013-01-10 22:30:00